This is the latest recevied weather packets stored in our database for station/object WZ8H. If no packets are shown the sender has not sent any weather packets the latest 10 day(s).
| Time | Temp. | Humidity | Pressure | Rain* | Wind** | Luminosity | Snow |
|---|---|---|---|---|---|---|---|
| 1777584527 | 13.33° C | 54% | 1012.8 hPa | 0 mm | - | 548 W/m² | - |
| 1777584224 | 13.33° C | 53% | 1012.8 hPa | 0 mm | - | 568 W/m² | - |
| 1777583896 | 13.33° C | 53% | 1012.8 hPa | 0 mm | - | 218 W/m² | - |
| 1777583590 | 13.33° C | 52% | 1012.9 hPa | 0 mm | - | 97 W/m² | - |
| 1777583288 | 13.33° C | 52% | 1012.9 hPa | 0 mm | - | 613 W/m² | - |
| 1777582959 | 13.33° C | 55% | 1013 hPa | 0 mm | - | 638 W/m² | - |
| 1777582657 | 13.33° C | 53% | 1013.1 hPa | 0 mm | - | 661 W/m² | - |
| 1777582333 | 13.33° C | 51% | 1013 hPa | 0 mm | - | 661 W/m² | - |
| 1777582035 | 13.33° C | 50% | 1013.1 hPa | 0 mm | - | 461 W/m² | - |
| 1777581699 | 13.33° C | 53% | 1013.2 hPa | 0 mm | - | 671 W/m² | - |
| 1777581613 | 13.33° C | 55% | 1013.3 hPa | 0 mm | - | 550 W/m² | - |
| 1777581528 | 13.33° C | 53% | 1013.2 hPa | 0 mm | - | 701 W/m² | - |
| 1777581259 | 13.33° C | 54% | 1013.2 hPa | 0 mm | - | 682 W/m² | - |
| 1777580876 | 13.33° C | 53% | 1013.4 hPa | 0 mm | - | 708 W/m² | - |
| 1777580489 | 13.33° C | 55% | 1013.3 hPa | 0 mm | - | 550 W/m² | - |
| 1777580152 | 13.33° C | 55% | 1013.2 hPa | 0 mm | - | 636 W/m² | - |
| 1777579868 | 13.33° C | 56% | 1013.2 hPa | 0 mm | - | 798 W/m² | - |
| 1777579553 | 13.33° C | 54% | 1013.2 hPa | 0 mm | - | 788 W/m² | - |
| 1777579269 | 13.33° C | 55% | 1013.2 hPa | 0 mm | - | 814 W/m² | - |
| 1777578947 | 13.33° C | 58% | 1013.2 hPa | 0 mm | - | 747 W/m² | - |
| 1777578640 | 13.33° C | 60% | 1013.1 hPa | 0 mm | - | 826 W/m² | - |
| 1777578316 | 12.78° C | 55% | 1013.2 hPa | 0 mm | - | 842 W/m² | - |
| 1777577988 | 12.78° C | 56% | 1013.2 hPa | 0 mm | - | 628 W/m² | - |
| 1777577687 | 12.78° C | 57% | 1013.3 hPa | 0 mm | - | 682 W/m² | - |
| 1777577357 | 12.78° C | 57% | 1013.3 hPa | 0 mm | - | 849 W/m² | - |
* Rain latest hour (hover to see other rain measurements)
** Current wind speed in m/s (hover to see current wind gust speed)